354  
ASUS44 KFWD 281015  
RWRTX  
NORTH TEXAS HOURLY WEATHER ROUNDUP  
NATIONAL WEATHER SERVICE FORT WORTH TX  
500 AM CDT SUN MAY 28 2017  
 
NOTE: "FAIR" INDICATES FEW OR NO CLOUDS BELOW 12,000 FEET WITH NO  
SIGNIFICANT WEATHER AND/OR S TO VISIBILITY
.  
 
TXZ118-119-281100-  
DALLAS/FORT WORTH METROPLEX  
 
CITY SKY/WX TMP DP RH WIND PRES REMARKS
 
DFW AIRPORT TSTM 75 67 76 E10 29.81R  
DALLAS LOVE TSTM 77 64 64 N9G20 29.85R  
FTW MEACHAM MOCLDY 78 68 71 E12 29.81R  
DAL-EXECUTIVE CLOUDY 79 73 82 SE6 29.82R  
FTW-ALLIANCE CLOUDY 74 67 78 N10 29.83R THUNDER  
FTW-SPINKS CLOUDY 78 72 80 CALM 29.84S  
ARLINGTON CLOUDY 79 71 76 SE7 29.83R  
GRAND PRAIRIE MOCLDY 79 70 74 SE6 29.84R  
ADDISON TSTM 74 65 73 E8 29.86R  
MESQUITE CLOUDY 77 69 76 NE15 29.85R  
LANCASTER CLOUDY 77 71 81 CALM 29.86R  

 
 
TXZ091>094-102>105-117-120-121-131>134-281100-  
NORTH CENTRAL TEXAS  
 
CITY SKY/WX TMP DP RH WIND PRES REMARKS
 
SHRMAN/DENISON CLOUDY 67 65 94 CALM 29.83F THUNDER  
GAINESVILLE CLOUDY 68 65 89 CALM 29.87R  
BOWIE CLOUDY 70 69 99 N9 29.86R  
BRIDGEPORT PTCLDY 70 68 93 N5 29.86R  
DENTON CLOUDY 69 68 96 N8 29.82R  
MCKINNEY TSTM 70 67 90 CALM 29.83F FOG  
BONHAM TSTM 66 64 94 W14 29.85R  
GREENVILLE TSTM 72 68 88 W5 29.89R  
ROCKWALL TSTM 73 64 72 E8 29.87R  
TERRELL CLOUDY 77 66 68 NE16 29.87R  
WAXAHACHIE CLOUDY 76 72 85 CALM 29.87R  
CLEBURNE CLOUDY 75 75 100 E7 29.85R  
GRANBURY CLOUDY 81 74 79 SE3 29.82S  

 
 
TXZ083>090-098>101-113>116-127>130-139>142-154-155-281100-  
WESTERN NORTH TEXAS  
 
CITY SKY/WX TMP DP RH WIND PRES REMARKS
 
WICHITA FALLS PTCLDY 70 61 73 N17 29.89R  
WF-KICKAPOO PTCLDY 73 62 68 N16G30 29.91S  
VERNON CLEAR 69 55 62 N13 29.95R  
ABILENE CLEAR 72 61 68 N18G31 29.93R  
ABILENE-DYESS CLEAR 72 61 68 N15G23 29.94R  
GRAHAM PTCLDY 74 65 75 N13G22 29.86R  
BRECKENRIDGE PTCLDY 76 62 62 N13G25 29.88R  
CISCO PTCLDY 75 64 69 N13G20 29.89R  
EASTLAND PTCLDY 74 65 72 N13 29.87R  
RANGER PTCLDY 75 66 73 N10 29.87R  
MINERAL WELLS CLEAR 75 66 73 NE12 29.82R  
STEPHENVILLE MOCLDY 78 73 83 CALM 29.85R  
COMANCHE PTCLDY 78 75 91 W3 29.83R  
BROWNWOOD CLOUDY 75 73 94 SW5 29.85R FOG  
COLEMAN CLOUDY 77 64 62 N16G28 29.88R  

 
 
TXZ143>147-156>162-174-175-281100-  
CENTRAL TEXAS  
 
CITY SKY/WX TMP DP RH WIND PRES REMARKS
 
WACO CLEAR 75 72 90 S14 29.80R  
WACO-MCGREGOR CLEAR 74 72 93 S10 29.81R  
HILLSBORO CLEAR 75 73 91 S15 29.79S  
CORSICANA CLOUDY 76 73 91 S9 29.82R  
MEXIA MOCLDY 74 72 92 S17G24 29.81R  
HEARNE MOCLDY 75 75 100 S6 29.84R  
CAMERON PTCLDY 75 73 91 S7 29.82R  
TEMPLE CLEAR 74 72 93 S10 29.82R  
KILLEEN CLEAR 74 71 91 S13 29.80R  
KILLEEN-SKYLRK CLEAR 74 71 91 S7 29.82R  
FORT HOOD CLEAR 72 70 93 S8 29.78R  
HAMILTON CLEAR 77 75 92 SW16G23 29.80S  
LAMPASAS CLEAR 76 73 92 S5 29.82R  

 
 
TXZ095>097-106>112-122>126-135>138-148>153-164>167-281100-  
EAST TEXAS  
 
CITY SKY/WX TMP DP RH WIND PRES REMARKS
 
PARIS CLOUDY 64 63 94 SE9 29.83F  
SULPHUR SPRNGS CLOUDY 68 67 95 S5 29.89F  
MOUNT PLEASANT CLOUDY 66 63 89 SE6 29.96R  
GILMER TSTM 67 64 91 NE6 29.95R  
MINEOLA TSTM 68 64 88 NE6 29.91R FOG  
TYLER CLOUDY 76 74 93 NE8 29.89R  
LONGVIEW CLOUDY 74 65 73 VRB6G24 29.94R  
MARSHALL CLOUDY 73 61 68 N17G26 29.98R  
ATHENS CLOUDY 73 73 100 N14 29.86R  
PALESTINE PTCLDY 75 73 93 S8 29.83R  
JACKSONVILLE CLOUDY 75 73 93 S12G17 29.85R  
HENDERSON CLOUDY 76 72 88 N8G22 29.92R  
CENTER PTSUNNY 79 77 94 CALM 29.85R  
NACOGDOCHES CLOUDY 73 72 94 CALM 29.82R  
LUFKIN PTCLDY 75 73 93 CALM 29.83R  

 
 
SUPPLEMENTAL OBSERVATIONS (NWS FORT WORTH AREA)  
 
CITY SKY/WX TMP DP RH WIND PRES REMARKS
 
DENISON DAM N/A 68 63 83 SW7 N/A  
CADDO GRASSLND N/A 66 63 88 SE3G16 N/A  
PAT MAYSE LAKE N/A 64 63 94 NE5 N/A  
GREENVILLE N/A 68 64 88 SW8 N/A  
CEDAR HILL N/A 79 72 78 SE7 N/A  
LBJ GRASSLAND N/A 70 66 88 NE2 N/A  
POSSUM KINGDOM N/A 75 66 73 N13G23 N/A  
GRANBURY N/A 81 73 78 SE3G15 N/A  
COMANCHE N/A 79 75 89 W6G21 N/A  
MCGREGOR N/A 73 68 83 S7 N/A  
TEMPLE N/A 73 70 88 S8G16 N/A  
LAKE LIMESTONE N/A 75 70 83 S12 N/A  
ATHENS N/A 75 72 88 NE3G17 N/A  

 
 
SUPPLEMENTAL OBSERVATIONS (NWS NORMAN AREA)  
 
CITY SKY/WX TMP DP RH WIND PRES REMARKS
 
GOODLETT N/A 62 54 76 NW10 29.99R  
ODELL N/A 63 58 82 NW8 29.97R  
CROWELL N/A 65 57 74 N13 29.98R  
KNOX CITY N/A 68 54 60 N13 29.98R  
SEYMOUR N/A 70 59 68 N17G23 29.94R  
MILLERS CREEK N/A 70 57 64 N10G21 N/A  

 
 
SUPPLEMENTAL OBSERVATIONS (NWS SAN ANGELO AREA)  
 
CITY SKY/WX TMP DP RH WIND PRES REMARKS
 
WEINERT N/A 69 57 65 N16 29.96R  
HASKELL N/A 69 55 59 N21 29.95R  
THROCKMORTON N/A 71 61 69 N9G15 29.92R  
STAMFORD N/A 71 61 68 N18 29.95R  
CLYDE N/A 71 61 70 N13 29.95R  
HAMBY N/A 72 59 64 N13G25 N/A  
IVIE RESERVOIR N/A 79 72 78 NW6G25 N/A  
COLORADO BEND N/A 75 72 88 W9G18 N/A  

 
 
SUPPLEMENTAL OBSERVATIONS (NWS SHREVEPORT AREA)  
 
CITY SKY/WX TMP DP RH WIND PRES REMARKS
 
CLARKSVILLE N/A 64 63 94 SE7G17 N/A  
TEXARKANA N/A 66 64 94 S1 N/A  
LINDEN N/A 66 63 88 NW2G14 N/A  
CADDO LAKE N/A N/A N/A N/A N6G17 N/A  
GILMER N/A 66 61 82 E2G18 N/A  
HENDERSON N/A 75 72 88 N7 N/A  
LUFKIN N/A 75 72 88 MISG N/A  
N SABINE NF N/A 75 72 88 MISG N/A  
S SABINE NF N/A 75 72 88 S2 N/A  

 
 
SUPPLEMENTAL OBSERVATIONS ARE A COLLECTION OF AUTOMATED INSTRUMENTS  
THAT ARE MAINTAINED BY A VARIETY OF FEDERAL AND STATE AGENCIES.  
CERTAIN ELEMENTS...SUCH AS HUMIDITY VALUES AND SUSTAINED WIND  
SPEEDS...MAY BE APPROXIMATED.  
 
 
 
CLICK HERE TO GO TO PREVIOUS BULLETINS.

The Nexlab TX Page Main Text Page